Погода Сангары

Погода Сангары : погода сейчас, прогноз погоды и архив. Всё, что Вы хотите узнать о погоде Сангары!

Хотите узнать прогноз погоды Сангары? Тогда Вам сюда: Погода Сангары

Поиск расширенной информации на нашем сайте:

Другие новости

Новости СМИ2

Главная страница сайта

Новости сайта

03.07.2017

Напоминаем, что на нашем специализированном сайте Метеоцентр.Азия вы можете получить высокодетализированные автоматические прогнозы погоды по пунктам России, СНГ и мира в авиационном формате (включающие направление и скорость ветра, видимость, явления погоды, количество и форму облачности, нижнюю и верхнюю границу облачности).

Рекомендуем: лесные жители белфакс

Погода Сангары - сегодня

Время (UTC), дата Ветер
(°,м/с) 
Видим.   Явления Облачность Т
(°С)
Тd
(°С)
f(%) Тe
(°С)
Pmin
(гПа)
dP
(гПа)
Po
(мм)
O2
(г/м3)
Тmin Tmax R s Состояние
почвы
18 21.11.17 080 (В) 10 км  {снег}  9/9 750 м 
[Sc]
-30.5 -33 79 -31  1010.3  748  341           
21 21.11.17 тихо ()   10 км    9/9 700 м 
[Sc]
-30.4 -32.8 79 -30  1011.1  0.8  748  341           
00 22.11.17 тихо ()   20000 м    8/4 600 м средняя 
[Sc|Ac trans]
-29.6 -32 80 -30  1012.1  749  340  -32.4    0.2  25  равномерный
сухой снег
100% 
03 22.11.17 тихо ()   20000 м    10/0 средняя 
[As op]
-29.6 -32 80 -30  1012.2  0.1  749  340           
06 22.11.17 300 (СЗ) 20000 м  слаб. снег  10/0 средняя 
[As op]
-29.4 -31.8 80 -30  1014.1  1.9  750  341           
09 22.11.17 280 (З) 10 км  слаб. снег  10/0 средняя 
[As op]
-28.2 -30.7 79 -32  1014.7  0.6  751  339           
12 22.11.17 280 (З) 10 км  слаб. снег  10/0 средняя 
[As op]
-27.6 -30 80 -31  1015.8  1.2  752  339    -27.6  0.3     
15 22.11.17 280 (З) 10 км  слаб. снег  10/0 верхняя 
[Cs]
-28.2 -30.7 79 -32  1017.1  1.1  753  340           
18 22.11.17 тихо ()   10 км  {снег}  10/0 верхняя 
[Cs]
-29.5 -32 79 -30  1018  0.9  753  342           
21 22.11.17 тихо ()   10 км    4/0 верхняя 
[Ci fib]
-30.4 -32.8 79 -30  1018.4  0.3  754  344           
00 23.11.17 тихо ()   20000 м    10/0 средняя, верхняя 
[Ac trans|Ci fib]
-33.8 -36.2 79 -34  1019.4  0.9  754  349  -33.8    0.2  26  равномерный
сухой снег
100% 
03 23.11.17 тихо ()   20000 м    10/0 верхняя 
[Ci sp]
-31.2 -33.6 79 -31  1020.5  1.2  755  345  -34.2         
06 23.11.17 тихо ()   20000 м    10/0 средняя, верхняя 
[Ac trans|Ci sp]
-30.5 -32.4 84 -31  1021.7  1.2  756  345           
09 23.11.17 тихо ()   10 км    10/0 средняя, верхняя 
[Ac trans|Ci sp]
-31.6 -33.3 85 -32  1022.7  757  347           
12 23.11.17 тихо ()   10 км    10/0 средняя, верхняя 
[Ac trans|Ci sp]
-33 -35.4 79 -33  1023.5  0.6  757  349    -29.9       
15 23.11.17 тихо ()   10 км    10/0 средняя, верхняя 
[Ac trans|Ci fib]
-33.5 -35.9 79 -34  1023.3  -0.2  757  350           
18 23.11.17 тихо ()   10 км    10/0 верхняя 
[Ci fib]
-35.6 -37.7 81 -36  1023.4  757  353           
21 23.11.17 тихо ()   10 км    3/0 верхняя 
[Ci fib]
-37.6 -39.9 79 -38  1022.8  -0.7  757  356           
00 24.11.17 тихо ()   20000 м    6/0 верхняя 
[Ci fib]
-37.9 -40.3 78 -38  1022.6  -0.2  756  356  -37.9      25  равномерный
сухой снег
100% 
03 24.11.17 270 (З) 20000 м    10/0 верхняя 
[Ci fib]
-34.9 -37.1 80 -36  1021.5  -1  756  351  -38.8         
06 24.11.17 300 (СЗ) 20000 м    10/0 верхняя 
[Ci fib]
-34.1 -36.5 79 -35  1020.6  -0.8  755  350           
09 24.11.17 290 (З) 10 км    10/0 верхняя 
[Cs]
-33.5 -35.9 79 -34  1018.9  -1.6  754  348           
12 24.11.17 280 (З) 10 км    10/0 верхняя 
[Cs]
-33.8 -36.2 79 -35  1016.8  -2.1  752  348    -33.5       
15 24.11.17 тихо ()   10 км    10/0 средняя, верхняя 
[Ac trans|Ci fib]
-37.4 -39.5 81 -37  1014  -3  750  352           
18 24.11.17 тихо ()   10 км    10/0 верхняя 
[Ci fib]
-37.6 -39.9 79 -38  1010.8  -3.1  748  351           
Время (UTC), дата Ветер
(°,м/с) 
Видим.   Явления Облачность Т
(°С)
Тd
(°С)
f(%) Тe
(°С)
Pmin
(гПа)
dP
(гПа)
Po
(мм)
O2
(г/м3)
Тmin Tmax R s Состояние
почвы

Для получения пояснительной информации подведите курсор к названию столбца.

ПОГОДА Сангары - архив

Всё, что Вы хотите узнать о погоде Сангары - удобно и подробно!

Выберите нужную дату (начиная с 1 января 2015* года) и нажмите кнопку "Найти".
Будут отображены архивные сводки погоды по пункту Сангары, начиная с указанной даты.


Отображать данные в формате CSV (для использования в таблицах Excel)


Внимание! Наш архив погоды предназначен исключительно для личного некоммерческого использования в познавательных целях. Если Вам необходимы официальные справки о состоянии погоды (для производственных, юридических, коммерческих и т.п. целей), обращайтесь в органы Росгидромета.

*Примечание: данная дата относится к архиву по метеостанциям СССР (Россия, СНГ, Балтия).
Архив по метеостанциям Зарубежной Европы и Азии (кроме Китая) хранится 10 дней, по другим регионам земного шара (Китай, Африка, Америка, Австралия, Океания) - 1 день.

Сангары - район местоположения метеостанции


Название, широта, долгота, высота метеостанции:
Сангары 64°ш. 127.5°д. 96 м над ур. моря [Российская Федерация]

Дополнительная информация

В oтличие oт бoльшинства пoгoдных сайтoв мы публикуем пoдрoбную метеoинфoрмацию в детальнoм прoфессиoнальнoм фoрмате.

Характеристики температуры и влажнoсти вoздуха измеряются на высoте 2 м в тени вдали oт зданий и деревьев.
Скoрoсть ветра измеряется на высoте 10 м (на урoвне рoста челoвека скoрoсть ветра ниже в 1.5-2 раза). Если метеoстанция нахoдится в гoрoде или в лесу, тo скoрoсть ветра занижена на 2-4 м/с пo сравнению с oткрытым местoм. Скoрoсть ветра над акватoриями крупных рек и oзёр, а также на вершинах хoлмoв на 2-5 м/с выше, чем в oбычных услoвиях.
Атмoсфернoе давление в разных тoчках местнoсти мoжет значительнo oтличаться oт давления на метеoстанции, в зависимoсти oт услoвий рельефа (при пoдъёме на 10 м давление пoнижается примернo на 1 мм рт.ст.).